GEFSNE_con_prob3kmehi_348.txt.gz
EHI
0 0 0 1 1 0 0 1 2 3 3 1 0 0 0 0 0 1 1 1 0 0 0 0 0 0 0 0 0 0 0 0 0 0 0 0 0 0
1 1 1 2 1 0 0 1 2 3 3 2 1 0 0 0 0 0 0 0 0 0 0 0 0 0 0 0 0 0 0 0 0 0 0 0 0 0
3 3 3 2 1 0 0 0 1 3 3 3 2 1 0 0 0 0 0 0 1 0 0 0 0 0 0 0 0 0 0 0 0 0 0 0 0 0
4 4 4 2 1 0 0 0 1 2 2 3 2 1 0 0 0 0 0 0 0 0 0 0 0 0 0 0 0 0 0 0 0 0 0 0 0 0
4 4 3 2 1 0 0 0 0 1 1 1 1 1 0 0 0 0 0 0 0 0 0 0 0 0 0 0 0 0 0 0 0 0 0 0 0 0
4 3 1 1 0 0 0 0 0 0 0 0 0 0 0 0 0 0 0 0 0 0 0 0 0 0 0 0 0 0 0 0 0 0 0 0 0 0
3 2 1 0 0 0 0 0 0 0 0 0 0 0 0 0 0 0 0 0 0 0 0 0 0 0 0 0 0 0 0 0 0 0 0 0 0 0
2 1 0 0 0 0 0 0 0 0 0 0 0 0 0 0 0 0 0 0 0 0 0 0 0 0 0 0 0 0 0 0 0 0 0 0 0 0
1 0 0 0 0 0 0 0 0 0 0 0 0 0 0 0 0 0 0 0 0 0 0 0 0 0 0 0 0 0 0 0 0 0 0 0 0 0
0 0 0 0 0 0 0 0 0 0 0 0 0 0 0 0 0 0 0 0 0 0 0 0 0 0 0 0 0 0 0 0 0 0 0 0 0 0
0 0 0 0 0 0 0 0 0 0 0 0 0 0 0 0 0 0 0 0 0 0 0 0 0 0 0 0 0 0 0 0 0 0 0 0 0 0
0 0 0 0 0 0 0 0 0 0 0 0 0 0 0 0 0 0 0 0 0 0 0 0 1 1 1 1 0 0 0 0 0 0 0 0 0 0
1 1 1 0 0 0 0 0 0 0 0 0 0 0 0 0 0 0 0 0 0 0 0 0 1 2 2 2 1 0 0 0 0 0 0 0 0 0
2 2 2 0 0 0 0 0 0 0 0 0 0 0 0 0 0 0 0 0 0 0 0 0 2 3 3 2 1 0 0 0 0 0 0 0 0 0
2 2 1 0 0 0 0 0 0 0 0 0 0 0 0 0 0 0 0 0 0 0 0 0 2 3 2 1 0 0 0 0 0 0 0 0 0 0
1 1 0 0 0 0 0 0 0 0 0 0 0 0 0 0 0 0 0 0 0 0 0 0 1 2 1 0 0 0 0 0 0 0 0 0 0 0
0 0 0 0 0 0 0 0 0 0 0 0 0 0 0 0 0 0 0 0 0 0 0 0 0 0 0 0 0 0 0 0 0 0 0 0 0 0
0 0 0 0 0 0 0 0 0 0 0 0 0 0 0 0 0 0 0 0 0 0 0 0 0 0 0 0 0 0 0 0 0 0 0 0 0 0
0 0 0 0 0 0 0 0 0 0 0 0 0 0 0 0 0 0 0 0 0 0 0 0 0 0 0 0 0 0 0 0 0 0 0 0 0 0
0 0 0 0 0 0 0 0 0 0 0 0 0 0 0 0 0 0 0 0 0 0 0 0 0 0 0 0 0 0 0 0 0 0 0 0 0 0
0 0 0 0 0 0 0 0 0 0 0 0 0 0 0 0 0 0 0 0 0 0 0 0 0 0 0 0 0 0 0 0 0 0 0 0 0 0
0 0 0 0 0 0 0 0 0 0 0 0 0 0 0 0 0 0 0 0 0 0 0 0 0 0 0 0 0 0 0 0 0 0 0 0 0 0
0 0 0 0 0 0 0 0 0 0 0 0 0 0 0 0 0 0 0 0 0 0 0 0 0 0 0 0 0 0 0 0 0 0 0 0 0 0

GEFSNE_con_prob3kmehi_354.txt.gz
EHI
12 10 8 8 8 7 4 4 6 6 6 5 2 1 1 1 1 0 0 0 0 0 0 0 0 0 0 1 2 2 2 1 0 0 0 0 0 0
12 10 8 8 8 6 6 7 9 9 8 6 3 1 2 2 2 1 1 1 0 0 0 0 0 0 0 0 1 1 1 0 0 0 0 0 0 0
11 9 8 8 7 6 7 9 10 11 10 8 5 3 3 5 5 4 2 1 0 0 0 0 0 0 0 0 0 0 0 0 0 0 0 0 0 0
11 10 9 9 8 8 8 9 10 10 10 9 7 5 5 6 6 4 2 1 1 0 0 0 0 0 0 0 0 0 0 0 0 0 0 0 0 0
14 13 12 11 10 10 10 10 10 10 10 10 9 8 6 5 5 3 2 2 1 0 0 0 0 0 0 0 0 0 0 0 0 0 0 0 0 0
14 14 14 12 11 11 10 10 10 10 10 10 9 8 6 4 3 2 2 3 1 0 0 0 0 0 0 0 0 0 0 0 0 0 0 0 0 0
11 12 13 11 10 9 8 8 9 10 10 11 10 8 6 4 2 1 2 3 2 2 2 2 1 1 0 0 0 0 0 0 0 0 0 0 0 0
11 11 11 10 7 6 4 4 6 7 8 11 11 10 7 4 2 1 2 4 3 3 3 3 2 1 1 1 1 0 0 0 0 0 0 0 0 0
12 12 11 9 8 6 4 3 4 4 5 8 9 9 8 6 4 3 3 5 5 4 4 2 1 1 0 0 0 0 0 0 0 0 0 0 0 0
13 13 12 11 8 7 6 6 6 5 4 3 5 6 5 5 5 5 5 5 5 4 4 2 1 0 0 0 0 0 0 0 0 0 0 0 0 0
12 11 10 8 6 5 6 8 9 8 5 2 2 2 2 1 3 5 6 5 3 3 4 3 1 0 0 0 1 1 0 0 0 0 0 0 0 0
14 11 8 5 3 2 4 6 8 8 8 5 3 2 2 2 2 4 5 4 1 1 4 5 2 1 1 1 2 2 1 0 0 0 0 0 0 0
15 13 8 4 1 1 2 3 5 6 8 8 6 5 5 5 4 4 4 4 2 2 5 6 4 2 2 2 1 1 1 0 0 0 0 0 0 0
14 13 9 4 1 0 0 1 1 3 6 8 7 6 7 7 6 6 6 6 5 5 6 8 7 5 4 2 1 0 0 0 0 0 0 0 0 0
11 9 6 2 0 0 0 0 0 1 4 5 5 5 5 5 6 7 8 8 7 7 7 8 8 7 5 3 2 0 0 0 0 0 0 0 0 0
8 7 5 2 1 1 1 1 0 1 2 3 3 2 2 2 3 5 7 7 6 6 6 7 8 7 6 4 2 0 0 0 0 0 0 0 0 0
10 11 10 7 3 2 3 2 1 0 1 1 1 1 0 0 1 2 4 4 4 4 5 6 6 6 4 3 2 1 1 1 1 0 0 0 0 0
11 13 14 12 7 4 3 2 1 0 0 0 0 0 0 0 1 2 3 3 3 2 2 3 3 3 2 2 2 2 2 2 2 1 0 0 0 0
8 10 13 13 10 6 4 2 1 0 0 0 0 0 0 1 2 3 3 3 3 1 0 1 1 1 0 1 1 1 2 3 3 2 1 0 0 0
6 7 9 10 10 8 6 3 1 0 1 1 1 1 1 2 3 3 3 3 2 1 0 0 0 0 0 0 0 0 1 2 2 2 1 0 0 0
5 5 6 7 8 8 6 3 0 0 1 2 2 2 3 3 3 2 2 1 1 0 0 0 0 0 0 0 0 0 0 1 1 1 0 0 0 0
4 4 4 4 6 6 5 3 1 1 1 2 2 2 2 2 1 1 1 0 0 0 0 0 0 0 0 0 0 0 0 0 0 0 0 0 0 0
3 3 3 4 4 3 3 3 3 2 1 1 1 1 1 1 0 0 0 0 0 0 0 0 0 0 0 0 0 0 0 0 0 0 0 0 0 0

GEFSNE_con_prob3kmehi_360.txt.gz
EHI
13 12 11 11 12 13 14 14 12 10 11 13 12 9 9 8 4 3 4 2 0 0 0 0 0 0 0 0 0 0 0 0 0 0 1 2 3 3
14 13 13 12 12 13 14 14 12 10 9 11 11 11 10 8 5 5 5 4 2 0 0 0 0 0 0 0 0 0 0 0 0 0 1 2 2 2
15 14 13 13 13 13 13 13 13 11 9 9 10 12 12 10 8 7 7 5 3 1 0 0 0 0 0 0 0 0 0 0 0 0 0 1 1 1
18 17 16 16 18 17 13 12 14 14 11 9 10 12 13 13 10 8 6 4 3 1 0 0 0 0 0 0 0 0 0 0 0 0 0 0 0 0
21 22 22 22 22 18 14 12 13 14 13 11 10 11 13 13 11 8 6 3 1 0 0 0 0 0 0 0 0 0 0 0 0 0 0 0 0 0
20 21 21 21 20 16 13 13 14 15 14 11 9 9 11 12 12 10 7 5 2 1 0 0 0 0 0 0 0 0 0 0 0 0 0 0 0 0
17 17 15 13 13 12 11 11 13 16 15 11 8 8 9 11 12 12 10 6 3 1 1 0 0 0 1 1 0 0 0 0 0 0 0 0 0 0
16 16 13 10 9 9 8 8 10 11 12 9 6 6 9 12 13 13 10 6 3 3 3 2 1 1 1 1 0 0 0 0 0 0 0 0 0 0
16 16 15 13 10 9 7 6 6 6 6 6 5 5 8 12 14 13 10 6 4 6 7 4 3 2 1 1 0 0 0 0 0 0 0 0 0 0
16 16 15 14 12 10 8 7 7 6 4 3 4 4 5 9 12 11 8 5 4 7 10 7 4 3 2 1 1 0 0 0 0 0 0 0 0 0
16 15 13 12 10 9 10 11 11 9 6 3 3 3 3 4 7 8 7 5 4 7 10 9 4 2 3 5 3 1 0 0 0 0 0 0 0 0
15 14 11 8 6 6 11 14 13 11 9 5 4 3 1 1 3 5 6 5 5 6 8 8 5 3 4 7 7 4 1 0 0 0 0 0 0 0
15 16 12 6 2 3 8 11 10 9 8 7 6 4 3 1 2 3 5 6 7 7 6 6 6 5 5 6 7 6 3 1 0 0 0 0 0 0
17 16 12 5 1 0 3 5 5 4 6 7 7 6 4 3 4 4 4 5 6 6 4 5 7 6 5 5 6 6 4 1 0 0 0 0 0 0
15 12 8 3 1 0 1 1 1 2 5 6 6 6 4 4 6 6 5 4 5 4 3 3 5 5 5 5 6 6 4 2 0 0 0 0 0 0
8 7 5 3 3 3 3 2 2 4 6 6 6 5 3 3 5 7 6 5 4 3 2 2 3 4 5 5 5 5 3 2 1 0 0 0 0 0
5 8 8 8 8 8 8 6 5 6 6 5 4 3 2 1 4 6 6 5 4 3 3 3 3 4 4 4 3 2 1 2 2 1 0 0 0 0
6 9 11 12 13 13 11 9 7 6 6 4 3 2 1 0 2 4 5 4 3 3 3 3 3 3 2 2 1 0 0 1 1 1 0 0 0 0
5 7 10 12 13 13 11 9 7 6 5 4 2 1 0 0 1 2 3 3 3 1 1 3 3 1 1 0 0 0 0 0 0 0 0 0 0 0
5 7 9 11 12 11 10 9 8 6 4 2 1 0 0 0 1 2 3 3 2 1 1 2 2 1 0 0 0 0 0 0 0 0 0 0 0 0
5 7 9 11 10 9 9 8 6 4 2 1 0 0 0 0 1 2 3 3 2 1 0 1 1 0 0 0 0 0 0 0 0 0 0 0 0 0
5 5 7 8 8 8 8 7 5 3 1 0 0 0 0 0 1 3 3 3 2 1 0 0 0 0 0 0 0 0 0 0 0 0 0 0 0 0
2 2 4 6 7 7 7 6 4 2 1 0 0 0 0 1 2 3 3 3 1 0 0 0 0 0 0 0 0 0 0 0 0 0 0 0 0 0

GEFSNE_con_prob3kmehi_366.txt.gz
EHI
5 5 4 2 2 2 3 3 1 0 0 0 0 0 0 1 0 0 0 0 0 0 0 0 0 0 0 0 0 0 0 0 0 0 0 0 0 0
6 4 3 3 2 1 2 3 2 1 0 0 0 0 0 1 0 0 0 0 0 0 0 0 0 0 0 0 0 0 0 0 0 0 0 0 0 0
7 5 3 3 2 1 1 2 2 1 0 0 0 0 0 0 0 0 0 0 0 0 0 0 0 0 0 0 0 0 0 0 0 0 0 0 0 0
8 6 4 3 3 2 1 1 1 1 0 1 1 1 1 0 0 0 0 0 0 0 0 0 0 0 0 0 0 0 0 0 0 0 0 0 0 0
9 8 6 4 3 3 3 2 1 0 1 2 2 2 1 0 0 0 0 0 0 0 0 0 0 0 0 0 0 0 0 0 0 0 0 0 0 0
11 10 9 7 5 4 3 3 2 1 1 2 2 1 1 0 0 0 0 0 0 0 0 0 0 0 0 0 0 0 0 0 0 0 0 0 0 0
11 11 11 9 6 5 4 3 3 2 2 3 2 1 1 1 1 1 0 0 0 0 0 0 0 0 0 0 0 0 0 0 0 0 0 0 0 0
11 10 10 9 7 5 4 3 3 3 4 5 4 4 3 3 2 2 1 0 0 0 0 0 0 0 0 0 0 0 0 0 0 0 0 0 0 0
9 9 9 9 8 6 4 3 3 3 4 5 6 6 5 3 3 2 1 0 0 0 0 0 0 0 0 0 0 0 0 0 0 0 0 0 0 0
7 7 8 8 8 7 6 4 3 3 3 4 5 6 4 2 1 2 1 0 0 0 0 0 0 0 0 0 0 0 0 0 0 0 0 0 0 0
5 5 5 5 5 5 5 5 4 4 4 4 4 3 2 1 0 1 1 0 0 0 0 0 0 0 0 0 0 0 0 0 0 0 0 0 0 0
5 4 3 2 2 3 4 5 6 5 5 4 2 1 1 0 0 0 0 0 0 0 0 0 0 0 0 0 0 0 0 0 0 0 0 0 0 0
5 5 4 1 1 1 2 4 4 4 5 4 2 0 0 0 0 0 0 0 0 0 0 0 0 0 0 0 0 0 0 0 0 0 0 0 0 0
4 4 3 1 0 0 0 1 1 2 3 4 2 1 1 0 0 0 0 0 0 0 0 0 0 0 0 0 0 0 0 0 0 0 0 0 0 0
2 2 2 1 0 0 0 0 0 1 2 3 3 2 1 0 0 0 0 0 0 0 0 0 0 0 0 0 0 0 0 0 0 0 0 0 0 0
1 1 1 0 0 0 0 0 0 1 2 2 2 1 1 0 0 0 0 0 0 0 0 0 0 0 0 0 0 0 0 0 0 0 0 0 0 0
1 0 0 0 1 1 1 0 0 0 1 1 1 0 0 0 0 0 0 0 0 0 0 0 0 0 0 0 0 0 0 0 0 0 0 0 0 0
1 1 1 1 2 3 3 2 1 1 2 3 2 1 1 0 0 0 0 0 0 0 0 0 0 0 0 0 0 0 0 0 0 0 0 0 0 0
1 2 3 3 4 4 4 4 3 3 3 4 4 3 2 1 0 0 0 0 0 0 0 0 0 0 0 0 0 0 0 0 0 0 0 0 0 0
1 2 4 5 5 4 4 4 4 3 4 5 5 4 3 2 1 0 0 0 0 0 0 0 0 0 0 0 0 0 0 0 0 0 0 0 0 0
2 3 4 5 4 3 3 4 4 4 4 5 5 4 3 2 1 0 0 0 0 0 0 0 0 0 0 0 0 0 0 0 0 0 0 0 0 0
3 3 3 3 3 2 3 3 4 4 5 5 4 3 2 2 1 0 0 0 0 0 0 0 0 0 0 0 0 0 0 0 0 0 0 0 0 0
3 3 3 2 1 1 2 3 4 4 4 4 3 2 1 1 0 0 0 0 0 0 0 0 0 0 0 0 0 0 0 0 0 0 0 0 0 0